Okinawa, Japan

3:00 AM JST on February 26, 2018 (GMT +0900)
Kadena Air Base

Weather History for RODN - September, 2013

Change the Weather History Date:

Saturday, September 21, 2013

  Actual Average Record
Temperature  
Mean Temperature 82 °F -  
Max Temperature 86 °F 82 °F 89 °F (1998)
Min Temperature 77 °F 70 °F 64 °F (2006)
Cooling Degree Days 16    
Growing Degree Days 32 (Base 50)    
Moisture  
Dew Point 81 °F    
Average Humidity 100    
Maximum Humidity 100    
Minimum Humidity 89    
Precipitation  
Precipitation 1.97 in - - ()
Sea Level Pressure  
Sea Level Pressure 29.74 in    
Wind  
Wind Speed 16 mph ()    
Max Wind Speed 25 mph    
Max Gust Speed 36 mph    
Visibility 6.1 miles    
Events Fog , Rain , Thunderstorm    
Averages and records for this station are not official NWS values.
T = Trace of Precipitation, MM = Missing Value Source: Averaged Metar Reports

Daily Weather History Graph

Daily Weather History Graph

Search for Another Location

Airport or City:

Trip Planner

Search our weather history database for the weather conditions in past years. The results will help you decide how hot, cold, wet, or windy it might be!

Date:

Astronomy

Sep. 21, 2013 Rise Set
Actual Time 6:16 AM JST 6:26 PM JST
Civil Twilight 5:53 AM JST 6:49 PM JST
Nautical Twilight 5:26 AM JST 7:16 PM JST
Astronomical Twilight 4:59 AM JST 7:43 PM JST
Moon 7:31 PM JST (9/21) 7:43 AM JST (9/21)
Length of Visible Light 12h 56m
Length of Day
12h 09m
Full, 97% of the Moon is Illuminated
Sep 21
Full
Sep 27
Last Quarter
Oct 5
New
Oct 12
First Quarter
Oct 19
Full

Hourly Weather History & Observations

Time (JST) Temp. Heat Index Dew Point Humidity Pressure Visibility Wind Dir Wind Speed Gust Speed Precip Events Conditions
12:49 AM 80.6 °F 89.3 °F 80.6 °F 100% 29.73 in 10.0 mi East 15.0 mph 21.9 mph N/A   Mostly Cloudy
12:58 AM 81.5 °F 92.6 °F 81.5 °F 100% 29.75 in 10.0 mi East 16.1 mph - N/A   Mostly Cloudy
1:12 AM 82.4 °F 96.1 °F 82.4 °F 100% 29.73 in 10.0 mi East 17.3 mph 24.2 mph N/A   Mostly Cloudy
1:22 AM 82.4 °F 96.1 °F 82.4 °F 100% 29.72 in 10.0 mi ENE 15.0 mph - N/A   Mostly Cloudy
1:26 AM 82.4 °F 96.1 °F 82.4 °F 100% 29.72 in 10.0 mi ENE 13.8 mph - N/A   Mostly Cloudy
1:27 AM 82.4 °F 96.1 °F 82.4 °F 100% 29.72 in 10.0 mi ENE 16.1 mph - N/A   Mostly Cloudy
1:28 AM 82.4 °F 96.1 °F 82.4 °F 100% 29.72 in 10.0 mi ENE 16.1 mph - N/A   Mostly Cloudy
1:30 AM 82.4 °F 96.1 °F 82.4 °F 100% 29.72 in 10.0 mi ENE 15.0 mph - N/A   Mostly Cloudy
1:39 AM 82.4 °F 96.1 °F 82.4 °F 100% 29.71 in 10.0 mi East 17.3 mph 24.2 mph N/A   Mostly Cloudy
1:51 AM 82.4 °F 96.1 °F 82.4 °F 100% 29.71 in 9.0 mi East 17.3 mph 24.2 mph N/A Rain Light Rain
1:53 AM 82.4 °F 96.1 °F 82.4 °F 100% 29.71 in 5.0 mi East 21.9 mph 24.2 mph N/A Rain Light Rain
1:58 AM 82.2 °F 95.4 °F 82.2 °F 100% 29.74 in 5.0 mi East 20.7 mph 34.5 mph 0.02 in Rain Light Rain
2:02 AM 80.6 °F 89.3 °F 80.6 °F 100% 29.72 in 6.0 mi East 20.7 mph 34.5 mph N/A Rain Light Rain
2:03 AM 80.6 °F 89.3 °F 80.6 °F 100% 29.72 in 9.0 mi East 18.4 mph 34.5 mph N/A   Overcast
2:06 AM 80.6 °F 89.3 °F 80.6 °F 100% 29.72 in 10.0 mi East 19.6 mph 34.5 mph N/A   Overcast
2:09 AM 80.6 °F 89.3 °F 80.6 °F 100% 29.72 in 10.0 mi East 18.4 mph 24.2 mph N/A   Overcast
2:17 AM 80.6 °F 89.3 °F 80.6 °F 100% 29.72 in 7.0 mi East 18.4 mph 25.3 mph N/A Rain Light Rain
2:19 AM 80.6 °F 89.3 °F 80.6 °F 100% 29.72 in 5.0 mi East 18.4 mph 25.3 mph N/A Rain Light Rain
2:22 AM 80.6 °F 89.3 °F 80.6 °F 100% 29.72 in 4.0 mi East 16.1 mph 25.3 mph N/A Rain Light Rain
2:24 AM 80.6 °F 89.3 °F 80.6 °F 100% 29.72 in 3.0 mi East 16.1 mph 25.3 mph N/A Rain Light Rain
2:25 AM 80.6 °F 89.3 °F 80.6 °F 100% 29.72 in 2.5 mi East 16.1 mph 25.3 mph N/A Rain Light Rain
2:29 AM 80.6 °F 89.3 °F 80.6 °F 100% 29.72 in 2.5 mi East 18.4 mph 25.3 mph N/A Rain Light Rain
2:32 AM 80.6 °F 89.3 °F 80.6 °F 100% 29.72 in 3.0 mi East 18.4 mph - N/A Rain Light Rain
2:33 AM 80.6 °F 89.3 °F 80.6 °F 100% 29.71 in 3.0 mi East 18.4 mph - N/A Rain Light Rain
2:34 AM 80.6 °F 89.3 °F 80.6 °F 100% 29.72 in 4.0 mi East 16.1 mph - N/A Rain Light Rain
2:36 AM 80.6 °F 89.3 °F 80.6 °F 100% 29.71 in 7.0 mi East 18.4 mph 24.2 mph N/A Rain Light Rain
2:38 AM 80.6 °F 89.3 °F 80.6 °F 100% 29.71 in 10.0 mi East 16.1 mph 24.2 mph N/A Rain Light Rain
2:40 AM 80.6 °F 89.3 °F 80.6 °F 100% 29.72 in 10.0 mi East 15.0 mph 24.2 mph N/A Rain Light Rain
2:45 AM 80.6 °F 89.3 °F 80.6 °F 100% 29.72 in 10.0 mi East 16.1 mph 24.2 mph N/A Rain Light Rain
2:47 AM 80.6 °F 89.3 °F 80.6 °F 100% 29.72 in 7.0 mi East 16.1 mph - N/A Rain Light Rain
2:48 AM 80.6 °F 89.3 °F 80.6 °F 100% 29.72 in 5.0 mi East 12.7 mph - N/A Rain Rain
2:50 AM 80.6 °F 89.3 °F 80.6 °F 100% 29.71 in 3.0 mi East 11.5 mph - N/A Rain Rain
2:51 AM 80.6 °F 89.3 °F 80.6 °F 100% 29.71 in 2.5 mi East 12.7 mph - N/A Rain Heavy Rain
2:54 AM 80.6 °F 89.3 °F 80.6 °F 100% 29.72 in 2.5 mi East 10.4 mph - N/A Rain Light Rain
2:55 AM 80.6 °F 89.3 °F 80.6 °F 100% 29.72 in 2.5 mi East 9.2 mph - N/A Rain Light Rain
2:58 AM 80.8 °F 90.0 °F 80.8 °F 100% 29.73 in 2.5 mi East 11.5 mph - 0.16 in Rain Light Rain
2:59 AM 80.6 °F 89.3 °F 80.6 °F 100% 29.71 in 3.0 mi East 13.8 mph - N/A Rain Light Rain
3:01 AM 80.6 °F 89.3 °F 80.6 °F 100% 29.71 in 4.0 mi East 15.0 mph - N/A Rain , Thunderstorm Light Rain
3:02 AM 80.6 °F 89.3 °F 80.6 °F 100% 29.71 in 5.0 mi East 16.1 mph - N/A Rain , Thunderstorm Light Rain
3:07 AM 80.6 °F 89.3 °F 80.6 °F 100% 29.71 in 5.0 mi East 23.0 mph 29.9 mph N/A Rain , Thunderstorm Light Rain
3:08 AM 80.6 °F 89.3 °F 80.6 °F 100% 29.71 in 4.0 mi East 23.0 mph 29.9 mph N/A Rain , Thunderstorm Light Rain
3:13 AM 80.6 °F 89.3 °F 80.6 °F 100% 29.71 in 5.0 mi East 18.4 mph 29.9 mph N/A Rain , Thunderstorm Light Rain
3:18 AM 80.6 °F 89.3 °F 80.6 °F 100% 29.71 in 7.0 mi East 18.4 mph 25.3 mph N/A Rain Light Rain
3:21 AM 80.6 °F 89.3 °F 80.6 °F 100% 29.71 in 10.0 mi East 17.3 mph 25.3 mph N/A Rain Light Rain
3:22 AM 80.6 °F 89.3 °F 80.6 °F 100% 29.71 in 10.0 mi East 17.3 mph 25.3 mph N/A Rain Light Rain
3:23 AM 80.6 °F 89.3 °F 80.6 °F 100% 29.71 in 10.0 mi East 16.1 mph 25.3 mph N/A Rain Light Rain
3:28 AM 80.6 °F 89.3 °F 80.6 °F 100% 29.71 in 10.0 mi East 16.1 mph - N/A Rain Light Rain
3:38 AM 80.6 °F 89.3 °F 80.6 °F 100% 29.71 in 10.0 mi East 18.4 mph 24.2 mph N/A Rain Light Rain
3:42 AM 82.4 °F 96.1 °F 82.4 °F 100% 29.71 in 10.0 mi East 19.6 mph 24.2 mph N/A Rain Light Rain
3:53 AM 82.4 °F 96.1 °F 82.4 °F 100% 29.70 in 10.0 mi East 16.1 mph 25.3 mph N/A   Light Drizzle
3:54 AM 82.4 °F 96.1 °F 82.4 °F 100% 29.70 in 10.0 mi East 16.1 mph 25.3 mph N/A   Mostly Cloudy
3:58 AM 81.5 °F 92.6 °F 81.5 °F 100% 29.72 in 10.0 mi East 16.1 mph 25.3 mph 0.06 in   Mostly Cloudy
4:13 AM 82.4 °F 96.1 °F 82.4 °F 100% 29.71 in 10.0 mi East 16.1 mph - N/A   Mostly Cloudy
4:17 AM 82.4 °F 96.1 °F 82.4 °F 100% 29.70 in 10.0 mi East 18.4 mph 28.8 mph N/A   Mostly Cloudy
4:20 AM 82.4 °F 96.1 °F 82.4 °F 100% 29.70 in 10.0 mi East 18.4 mph 28.8 mph N/A   Mostly Cloudy
4:23 AM 82.4 °F 96.1 °F 82.4 °F 100% 29.71 in 7.0 mi East 24.2 mph 29.9 mph N/A Rain Light Rain
4:25 AM 82.4 °F 96.1 °F 82.4 °F 100% 29.71 in 5.0 mi East 20.7 mph 29.9 mph N/A Rain Light Rain
4:26 AM 80.6 °F 89.3 °F 80.6 °F 100% 29.71 in 4.0 mi East 21.9 mph 29.9 mph N/A Rain Light Rain
4:29 AM 80.6 °F 89.3 °F 80.6 °F 100% 29.71 in 4.0 mi East 23.0 mph 31.1 mph N/A Rain Light Rain
4:30 AM 80.6 °F 89.3 °F 80.6 °F 100% 29.71 in 4.0 mi East 23.0 mph 31.1 mph N/A Rain Light Rain
4:34 AM 80.6 °F 89.3 °F 80.6 °F 100% 29.71 in 5.0 mi East 19.6 mph 31.1 mph N/A Rain Light Rain
4:35 AM 80.6 °F 89.3 °F 80.6 °F 100% 29.71 in 6.0 mi East 19.6 mph 31.1 mph N/A Rain Light Rain
4:36 AM 80.6 °F 89.3 °F 80.6 °F 100% 29.71 in 7.0 mi East 18.4 mph 31.1 mph N/A Rain Light Rain
4:37 AM 80.6 °F 89.3 °F 80.6 °F 100% 29.71 in 9.0 mi East 19.6 mph 31.1 mph N/A Rain Light Rain
4:38 AM 80.6 °F 89.3 °F 80.6 °F 100% 29.71 in 10.0 mi East 21.9 mph 31.1 mph N/A Rain Light Rain
4:43 AM 80.6 °F 89.3 °F 80.6 °F 100% 29.71 in 9.0 mi East 19.6 mph 28.8 mph N/A Rain Light Rain
4:45 AM 80.6 °F 89.3 °F 80.6 °F 100% 29.71 in 7.0 mi East 19.6 mph 28.8 mph N/A Rain Light Rain
4:48 AM 78.8 °F - 78.8 °F 100% 29.72 in 6.0 mi East 19.6 mph 25.3 mph N/A Rain Light Rain
4:52 AM 78.8 °F - 78.8 °F 100% 29.71 in 7.0 mi East 20.7 mph 27.6 mph N/A Rain Light Rain
4:56 AM 78.8 °F - 78.8 °F 100% 29.71 in 9.0 mi East 20.7 mph 27.6 mph N/A Rain Light Rain
4:58 AM 79.0 °F - 79.0 °F 100% 29.73 in 9.0 mi East 19.6 mph 27.6 mph 0.06 in Rain Light Rain
4:59 AM 78.8 °F - 78.8 °F 100% 29.71 in 10.0 mi East 16.1 mph 27.6 mph N/A Rain , Thunderstorm Light Rain
5:00 AM 78.8 °F - 78.8 °F 100% 29.71 in 10.0 mi East 15.0 mph 27.6 mph N/A Thunderstorm Scattered Clouds
5:40 AM 80.6 °F 89.3 °F 80.6 °F 100% 29.72 in 8.0 mi East 18.4 mph 24.2 mph N/A Rain Light Rain
5:42 AM 80.6 °F 89.3 °F 80.6 °F 100% 29.72 in 4.0 mi ESE 13.8 mph 24.2 mph N/A Rain Light Rain
5:43 AM 80.6 °F 89.3 °F 80.6 °F 100% 29.73 in 3.0 mi ESE 15.0 mph 24.2 mph N/A Rain Light Rain
5:44 AM 80.6 °F 89.3 °F 80.6 °F 100% 29.73 in 2.5 mi East 18.4 mph 24.2 mph N/A Rain Heavy Rain
5:45 AM 80.6 °F 89.3 °F 80.6 °F 100% 29.74 in 1.8 mi ESE 23.0 mph 24.2 mph N/A Rain Heavy Rain
5:46 AM 80.6 °F 89.3 °F 80.6 °F 100% 29.74 in 1.2 mi ESE 25.3 mph 35.7 mph N/A Rain Heavy Rain
5:47 AM 80.6 °F 89.3 °F 80.6 °F 100% 29.74 in 1.0 mi ESE 24.2 mph 35.7 mph N/A Rain Heavy Rain
5:48 AM 80.6 °F 89.3 °F 80.6 °F 100% 29.74 in 0.8 mi SE 23.0 mph 35.7 mph N/A Rain Heavy Rain
5:49 AM 80.6 °F 89.3 °F 80.6 °F 100% 29.74 in 0.8 mi SE 23.0 mph 35.7 mph N/A Rain Heavy Rain
5:50 AM 80.6 °F 89.3 °F 80.6 °F 100% 29.74 in 0.8 mi SE 21.9 mph 35.7 mph N/A Rain Heavy Rain
5:51 AM 78.8 °F - 78.8 °F 100% 29.74 in 0.8 mi SE 21.9 mph 35.7 mph N/A Rain Heavy Rain
5:52 AM 78.8 °F - 78.8 °F 100% 29.74 in 0.5 mi ESE 20.7 mph 35.7 mph N/A Fog , Rain Heavy Rain
5:57 AM 78.8 °F - 78.8 °F 100% 29.73 in 0.8 mi ESE 21.9 mph 31.1 mph N/A Rain Heavy Rain
5:58 AM 77.0 °F - 77.0 °F 100% 29.75 in 0.8 mi ESE 21.9 mph 31.1 mph 0.52 in Rain Heavy Rain
6:02 AM 77.0 °F - 77.0 °F 100% 29.74 in 1.0 mi ESE 16.1 mph 27.6 mph N/A Rain Heavy Rain
6:03 AM 77.0 °F - 77.0 °F 100% 29.74 in 1.0 mi ESE 17.3 mph 27.6 mph N/A Rain Light Rain
6:04 AM 77.0 °F - 77.0 °F 100% 29.74 in 1.2 mi ESE 16.1 mph 27.6 mph N/A Rain Light Rain
6:06 AM 77.0 °F - 77.0 °F 100% 29.74 in 1.5 mi ESE 15.0 mph 27.6 mph N/A Rain Light Rain
6:07 AM 77.0 °F - 77.0 °F 100% 29.74 in 1.8 mi ESE 15.0 mph 23.0 mph N/A Rain Light Rain
6:08 AM 77.0 °F - 77.0 °F 100% 29.74 in 2.0 mi ESE 13.8 mph 23.0 mph N/A Rain Light Rain
6:09 AM 78.8 °F - 78.8 °F 100% 29.74 in 3.0 mi ESE 12.7 mph 23.0 mph N/A Rain Light Rain
6:11 AM 78.8 °F - 78.8 °F 100% 29.74 in 5.0 mi ESE 15.0 mph 23.0 mph N/A Rain Light Rain
6:12 AM 78.8 °F - 78.8 °F 100% 29.74 in 7.0 mi ESE 15.0 mph 23.0 mph N/A Rain Light Rain
6:25 AM 78.8 °F - 78.8 °F 100% 29.73 in 8.0 mi East 13.8 mph - N/A Rain , Thunderstorm Light Rain
6:33 AM 78.8 °F - 78.8 °F 100% 29.73 in 7.0 mi East 17.3 mph - N/A Rain , Thunderstorm Light Rain
6:49 AM 80.6 °F 89.3 °F 80.6 °F 100% 29.73 in 10.0 mi East 12.7 mph - N/A Rain Light Rain
6:52 AM 80.6 °F 89.3 °F 80.6 °F 100% 29.73 in 10.0 mi East 12.7 mph - N/A Rain Light Rain
6:55 AM 80.6 °F 89.3 °F 80.6 °F 100% 29.73 in 8.0 mi East 15.0 mph - N/A Rain Light Rain
6:57 AM 80.6 °F 89.3 °F 80.6 °F 100% 29.73 in 3.0 mi East 12.7 mph - N/A Rain Light Rain
6:58 AM 80.6 °F 89.3 °F 80.6 °F 100% 29.75 in 3.0 mi East 11.5 mph - 0.20 in Rain Light Rain
7:02 AM 80.6 °F 89.3 °F 80.6 °F 100% 29.74 in 2.5 mi East 12.7 mph - N/A Rain Light Rain
7:03 AM 80.6 °F 89.3 °F 80.6 °F 100% 29.74 in 2.5 mi East 12.7 mph - N/A Rain Light Rain
7:04 AM 80.6 °F 89.3 °F 80.6 °F 100% 29.74 in 3.0 mi East 15.0 mph - N/A Rain Light Rain
7:09 AM 80.6 °F 89.3 °F 80.6 °F 100% 29.74 in 9.0 mi East 16.1 mph 21.9 mph N/A Rain Light Rain
7:13 AM 80.6 °F 89.3 °F 80.6 °F 100% 29.74 in 10.0 mi East 18.4 mph 25.3 mph N/A Rain Light Rain
7:32 AM 80.6 °F 89.3 °F 80.6 °F 100% 29.74 in 10.0 mi East 16.1 mph 23.0 mph N/A Rain Light Rain
7:34 AM 80.6 °F 89.3 °F 80.6 °F 100% 29.74 in 10.0 mi East 19.6 mph 23.0 mph N/A Rain Light Rain
7:41 AM 80.6 °F 89.3 °F 80.6 °F 100% 29.74 in 10.0 mi East 16.1 mph 26.5 mph N/A Rain Light Rain
7:54 AM 80.6 °F 89.3 °F 80.6 °F 100% 29.75 in 9.0 mi East 16.1 mph 24.2 mph N/A Rain Light Rain
7:58 AM 80.8 °F 90.0 °F 80.8 °F 100% 29.77 in 10.0 mi East 11.5 mph 24.2 mph 0.04 in Rain Light Rain
8:06 AM 80.6 °F 89.3 °F 80.6 °F 100% 29.75 in 10.0 mi East 16.1 mph 20.7 mph N/A Rain Light Rain
8:07 AM 80.6 °F 89.3 °F 80.6 °F 100% 29.75 in 10.0 mi East 16.1 mph 20.7 mph N/A Rain Light Rain
8:12 AM 80.6 °F 89.3 °F 80.6 °F 100% 29.74 in 10.0 mi ENE 12.7 mph - N/A Rain Light Rain
8:58 AM 81.0 °F 90.6 °F 81.0 °F 100% 29.77 in 8.0 mi ENE 13.8 mph - 0.03 in Rain Light Rain
9:19 AM 80.6 °F 89.3 °F 80.6 °F 100% 29.76 in 10.0 mi East 15.0 mph - N/A Rain Light Rain
9:33 AM 80.6 °F 89.3 °F 80.6 °F 100% 29.77 in 10.0 mi East 13.8 mph - N/A Rain Light Rain
9:43 AM 82.4 °F 96.1 °F 82.4 °F 100% 29.77 in 10.0 mi East 15.0 mph - N/A Rain Light Rain
9:48 AM 82.4 °F 96.1 °F 82.4 °F 100% 29.77 in 10.0 mi East 11.5 mph - N/A Rain Light Rain
9:51 AM 82.4 °F 96.1 °F 82.4 °F 100% 29.77 in 10.0 mi East 11.5 mph 19.6 mph N/A Rain Light Rain
9:58 AM 81.7 °F 93.3 °F 81.7 °F 100% 29.79 in 10.0 mi East 12.7 mph 19.6 mph 0.01 in Rain Light Rain
10:09 AM 82.4 °F 96.1 °F 82.4 °F 100% 29.78 in 10.0 mi East 15.0 mph - N/A   Scattered Clouds
10:58 AM 83.3 °F 99.7 °F 83.3 °F 100% 29.79 in 10.0 mi East 12.7 mph 21.9 mph 0.00 in   Scattered Clouds
11:02 AM 84.2 °F 103.5 °F 84.2 °F 100% 29.76 in 10.0 mi East 17.3 mph 21.9 mph N/A   Mostly Cloudy
11:13 AM 84.2 °F 103.5 °F 84.2 °F 100% 29.76 in 10.0 mi East 13.8 mph - N/A   Mostly Cloudy
11:17 AM 84.2 °F 103.5 °F 84.2 °F 100% 29.76 in 9.0 mi East 17.3 mph - N/A   Mostly Cloudy
11:18 AM 84.2 °F 103.5 °F 84.2 °F 100% 29.76 in 8.0 mi East 16.1 mph - N/A Rain Light Rain
11:21 AM 84.2 °F 103.5 °F 84.2 °F 100% 29.76 in 5.0 mi East 16.1 mph - N/A Rain Rain
11:23 AM 82.4 °F 96.1 °F 82.4 °F 100% 29.76 in 2.5 mi ESE 16.1 mph - N/A Rain Rain
11:27 AM 82.4 °F 96.1 °F 82.4 °F 100% 29.76 in 2.0 mi East 18.4 mph 21.9 mph N/A Rain Light Rain
11:28 AM 82.4 °F 96.1 °F 82.4 °F 100% 29.76 in 1.8 mi East 19.6 mph 21.9 mph N/A Rain Light Rain
11:29 AM 82.4 °F 96.1 °F 82.4 °F 100% 29.76 in 1.5 mi East 20.7 mph - N/A Rain Light Rain
11:32 AM 80.6 °F 89.3 °F 80.6 °F 100% 29.76 in 1.2 mi ESE 17.3 mph 24.2 mph N/A Rain Heavy Rain
11:34 AM 80.6 °F 89.3 °F 80.6 °F 100% 29.76 in 1.0 mi ESE 19.6 mph 25.3 mph N/A Rain Heavy Rain
11:36 AM 80.6 °F 89.3 °F 80.6 °F 100% 29.77 in 0.8 mi East 16.1 mph 25.3 mph N/A Rain Heavy Rain
11:37 AM 80.6 °F 89.3 °F 80.6 °F 100% 29.77 in 0.8 mi East 16.1 mph 25.3 mph N/A Rain Heavy Rain
11:38 AM 80.6 °F 89.3 °F 80.6 °F 100% 29.77 in 0.5 mi East 19.6 mph 25.3 mph N/A Fog , Rain Heavy Rain
11:39 AM 80.6 °F 89.3 °F 80.6 °F 100% 29.76 in 0.5 mi East 21.9 mph 27.6 mph N/A Fog , Rain Heavy Rain
11:40 AM 80.6 °F 89.3 °F 80.6 °F 100% 29.76 in 0.5 mi East 23.0 mph 27.6 mph N/A Fog , Rain , Thunderstorm Heavy Thunderstorms and Rain
11:41 AM 80.6 °F 89.3 °F 80.6 °F 100% 29.76 in 0.5 mi East 20.7 mph 27.6 mph N/A Fog , Rain , Thunderstorm Heavy Thunderstorms and Rain
11:42 AM 80.6 °F 89.3 °F 80.6 °F 100% 29.76 in 0.5 mi East 18.4 mph 27.6 mph N/A Fog , Rain , Thunderstorm Heavy Thunderstorms and Rain
11:43 AM 78.8 °F - 78.8 °F 100% 29.76 in 0.2 mi East 16.1 mph 27.6 mph N/A Fog , Rain , Thunderstorm Heavy Thunderstorms and Rain
11:44 AM 78.8 °F - 78.8 °F 100% 29.76 in 0.2 mi East 17.3 mph 27.6 mph N/A Fog , Rain , Thunderstorm Heavy Thunderstorms and Rain
11:45 AM 78.8 °F - 78.8 °F 100% 29.76 in 0.5 mi East 18.4 mph 27.6 mph N/A Fog , Rain , Thunderstorm Heavy Thunderstorms and Rain
11:46 AM 78.8 °F - 78.8 °F 100% 29.76 in 0.2 mi East 18.4 mph 27.6 mph N/A Fog , Rain , Thunderstorm Heavy Thunderstorms and Rain
11:47 AM 78.8 °F - 78.8 °F 100% 29.75 in 0.5 mi East 18.4 mph 27.6 mph N/A Fog , Rain , Thunderstorm Heavy Thunderstorms and Rain
11:49 AM 78.8 °F - 78.8 °F 100% 29.75 in 0.5 mi East 18.4 mph 27.6 mph N/A Fog , Rain , Thunderstorm Heavy Thunderstorms and Rain
11:50 AM 78.8 °F - 78.8 °F 100% 29.75 in 0.5 mi East 18.4 mph - N/A Fog , Rain , Thunderstorm Heavy Thunderstorms and Rain
11:52 AM 78.8 °F - 78.8 °F 100% 29.75 in 0.5 mi East 17.3 mph 23.0 mph N/A Fog , Rain , Thunderstorm Thunderstorms and Rain
11:53 AM 78.8 °F - 78.8 °F 100% 29.74 in 0.8 mi East 17.3 mph 23.0 mph N/A Rain , Thunderstorm Thunderstorms and Rain
11:55 AM 77.0 °F - 77.0 °F 100% 29.75 in 1.0 mi East 15.0 mph 23.0 mph N/A Rain , Thunderstorm Thunderstorms and Rain
11:56 AM 77.0 °F - 77.0 °F 100% 29.74 in 1.2 mi East 16.1 mph - N/A Rain , Thunderstorm Thunderstorms and Rain
11:57 AM 77.0 °F - 77.0 °F 100% 29.75 in 1.8 mi East 16.1 mph - N/A Rain , Thunderstorm Thunderstorms and Rain
11:58 AM 78.8 °F - 78.8 °F 100% 29.77 in 2.0 mi East 17.3 mph - 0.60 in Rain , Thunderstorm Thunderstorms and Rain
12:00 PM 78.8 °F - 78.8 °F 100% 29.75 in 3.0 mi East 16.1 mph - N/A Rain , Thunderstorm Thunderstorms and Rain
12:13 PM 78.8 °F - 78.8 °F 100% 29.74 in 10.0 mi East 12.7 mph - N/A Rain Light Rain
12:19 PM 80.6 °F 89.3 °F 80.6 °F 100% 29.74 in 10.0 mi East 12.7 mph - N/A   Scattered Clouds
12:58 PM 82.4 °F 96.1 °F 82.4 °F 100% 29.76 in 10.0 mi East 10.4 mph - 0.03 in   Partly Cloudy
1:58 PM 85.6 °F 109.3 °F 85.3 °F 99% 29.74 in 10.0 mi East 13.8 mph 25.3 mph N/A   Scattered Clouds
2:58 PM 86.7 °F 107.4 °F 83.1 °F 89% 29.72 in 10.0 mi East 18.4 mph - N/A   Partly Cloudy
3:20 PM 86.0 °F 104.7 °F 82.4 °F 89% 29.70 in 10.0 mi East 17.3 mph - N/A   Mostly Cloudy
3:48 PM 86.0 °F 107.7 °F 84.2 °F 94% 29.71 in 10.0 mi East 15.0 mph - N/A   Mostly Cloudy
3:58 PM 85.8 °F 107.6 °F 84.2 °F 95% 29.73 in 10.0 mi East 13.8 mph - N/A   Mostly Cloudy
4:58 PM 84.2 °F 103.0 °F 83.8 °F 99% 29.73 in 10.0 mi East 15.0 mph - N/A   Overcast
5:24 PM 84.2 °F 103.5 °F 84.2 °F 100% 29.71 in 10.0 mi East 13.8 mph - N/A   Mostly Cloudy
5:30 PM 84.2 °F 103.5 °F 84.2 °F 100% 29.71 in 10.0 mi East 11.5 mph - N/A   Mostly Cloudy
5:58 PM 83.1 °F 99.0 °F 83.1 °F 100% 29.74 in 10.0 mi East 15.0 mph 20.7 mph N/A   Mostly Cloudy
6:22 PM 82.4 °F 96.1 °F 82.4 °F 100% 29.72 in 10.0 mi East 16.1 mph - N/A   Mostly Cloudy
6:23 PM 82.4 °F 96.1 °F 82.4 °F 100% 29.72 in 10.0 mi East 15.0 mph - N/A   Mostly Cloudy
6:30 PM 82.4 °F 96.1 °F 82.4 °F 100% 29.73 in 10.0 mi East 15.0 mph 21.9 mph N/A   Mostly Cloudy
6:46 PM 82.4 °F 96.1 °F 82.4 °F 100% 29.73 in 10.0 mi East 12.7 mph - N/A   Mostly Cloudy
6:48 PM 82.4 °F 96.1 °F 82.4 °F 100% 29.73 in 7.0 mi East 13.8 mph - N/A   Mostly Cloudy
6:49 PM 82.4 °F 96.1 °F 82.4 °F 100% 29.73 in 7.0 mi East 12.7 mph - N/A Rain Rain
6:51 PM 82.4 °F 96.1 °F 82.4 °F 100% 29.73 in 6.0 mi East 11.5 mph - N/A Rain Light Rain
6:53 PM 82.4 °F 96.1 °F 82.4 °F 100% 29.73 in 6.0 mi East 17.3 mph 25.3 mph N/A Rain Light Rain
6:54 PM 82.4 °F 96.1 °F 82.4 °F 100% 29.73 in 5.0 mi East 18.4 mph 25.3 mph N/A Rain Light Rain
6:55 PM 82.4 °F 96.1 °F 82.4 °F 100% 29.74 in 3.0 mi East 16.1 mph 25.3 mph N/A Rain Light Rain
6:56 PM 82.4 °F 96.1 °F 82.4 °F 100% 29.74 in 2.5 mi East 12.7 mph 25.3 mph N/A Rain Light Rain
6:58 PM 82.2 °F 95.4 °F 82.2 °F 100% 29.75 in 2.0 mi ESE 10.4 mph 25.3 mph 0.07 in Rain Rain
6:59 PM 80.6 °F 89.3 °F 80.6 °F 100% 29.73 in 2.0 mi East 11.5 mph 25.3 mph N/A Rain Heavy Rain
7:00 PM 80.6 °F 89.3 °F 80.6 °F 100% 29.73 in 1.8 mi East 12.7 mph 25.3 mph N/A Rain Heavy Rain
7:03 PM 80.6 °F 89.3 °F 80.6 °F 100% 29.73 in 1.8 mi East 10.4 mph 25.3 mph N/A Rain Light Rain
7:05 PM 80.6 °F 89.3 °F 80.6 °F 100% 29.73 in 2.0 mi East 11.5 mph - N/A Rain Light Rain
7:06 PM 80.6 °F 89.3 °F 80.6 °F 100% 29.73 in 2.5 mi East 11.5 mph - N/A Rain Light Rain
7:07 PM 80.6 °F 89.3 °F 80.6 °F 100% 29.73 in 3.0 mi East 11.5 mph - N/A Rain Light Rain
7:08 PM 80.6 °F 89.3 °F 80.6 °F 100% 29.73 in 4.0 mi East 10.4 mph - N/A Rain Light Rain
7:10 PM 80.6 °F 89.3 °F 80.6 °F 100% 29.73 in 7.0 mi East 10.4 mph - N/A Rain Light Rain
7:11 PM 80.6 °F 89.3 °F 80.6 °F 100% 29.73 in 8.0 mi East 10.4 mph - N/A Rain Light Rain
7:12 PM 80.6 °F 89.3 °F 80.6 °F 100% 29.73 in 10.0 mi East 10.4 mph - N/A Rain Light Rain
7:14 PM 80.6 °F 89.3 °F 80.6 °F 100% 29.74 in 10.0 mi East 12.7 mph - N/A   Mostly Cloudy
7:20 PM 80.6 °F 89.3 °F 80.6 °F 100% 29.74 in 10.0 mi East 13.8 mph - N/A   Mostly Cloudy
7:23 PM 80.6 °F 89.3 °F 80.6 °F 100% 29.74 in 10.0 mi East 12.7 mph - N/A   Mostly Cloudy
7:58 PM 81.1 °F 91.3 °F 81.1 °F 100% 29.76 in 10.0 mi East 13.8 mph - 0.09 in   Scattered Clouds
8:58 PM 82.0 °F 94.7 °F 82.0 °F 100% 29.77 in 10.0 mi East 10.4 mph - N/A   Scattered Clouds
9:58 PM 82.0 °F 94.7 °F 82.0 °F 100% 29.77 in 10.0 mi East 17.3 mph - N/A   Mostly Cloudy
9:59 PM 82.4 °F 96.1 °F 82.4 °F 100% 29.75 in 8.0 mi East 19.6 mph 24.2 mph N/A Rain Light Rain
10:03 PM 82.4 °F 96.1 °F 82.4 °F 100% 29.75 in 6.0 mi East 17.3 mph 24.2 mph N/A Rain Light Rain
10:05 PM 80.6 °F 89.3 °F 80.6 °F 100% 29.75 in 6.0 mi East 15.0 mph 24.2 mph N/A Rain Light Rain
10:08 PM 80.6 °F 89.3 °F 80.6 °F 100% 29.75 in 6.0 mi East 15.0 mph 24.2 mph N/A Rain Light Rain
10:09 PM 80.6 °F 89.3 °F 80.6 °F 100% 29.75 in 7.0 mi East 12.7 mph - N/A Rain Light Rain
10:14 PM 80.6 °F 89.3 °F 80.6 °F 100% 29.75 in 9.0 mi East 15.0 mph - N/A Rain Light Rain
10:22 PM 80.6 °F 89.3 °F 80.6 °F 100% 29.76 in 7.0 mi East 17.3 mph - N/A Rain Light Rain
10:24 PM 80.6 °F 89.3 °F 80.6 °F 100% 29.76 in 5.0 mi East 16.1 mph - N/A Rain Rain
10:26 PM 80.6 °F 89.3 °F 80.6 °F 100% 29.75 in 5.0 mi East 16.1 mph 21.9 mph N/A Rain Light Rain
10:29 PM 80.6 °F 89.3 °F 80.6 °F 100% 29.75 in 5.0 mi East 20.7 mph 24.2 mph N/A Rain Light Rain
10:30 PM 80.6 °F 89.3 °F 80.6 °F 100% 29.75 in 4.0 mi East 19.6 mph 24.2 mph N/A Rain Light Rain
10:32 PM 80.6 °F 89.3 °F 80.6 °F 100% 29.75 in 4.0 mi East 16.1 mph 24.2 mph N/A Rain Light Rain
10:33 PM 80.6 °F 89.3 °F 80.6 °F 100% 29.75 in 5.0 mi East 16.1 mph 24.2 mph N/A Rain Light Rain
10:39 PM 80.6 °F 89.3 °F 80.6 °F 100% 29.75 in 6.0 mi East 12.7 mph - N/A Rain Light Rain
10:42 PM 80.6 °F 89.3 °F 80.6 °F 100% 29.75 in 9.0 mi East 13.8 mph - N/A Rain Light Rain
10:44 PM 80.6 °F 89.3 °F 80.6 °F 100% 29.75 in 10.0 mi East 11.5 mph - N/A   Mostly Cloudy
10:51 PM 80.6 °F 89.3 °F 80.6 °F 100% 29.75 in 7.0 mi ESE 21.9 mph 27.6 mph N/A Rain Light Rain
10:53 PM 80.6 °F 89.3 °F 80.6 °F 100% 29.75 in 5.0 mi ESE 17.3 mph 27.6 mph N/A Rain Light Rain
10:55 PM 80.6 °F 89.3 °F 80.6 °F 100% 29.75 in 4.0 mi ESE 15.0 mph 27.6 mph N/A Rain Light Rain
10:58 PM 79.9 °F - 79.9 °F 100% 29.77 in 4.0 mi ESE 11.5 mph 27.6 mph 0.08 in Rain Light Rain
11:03 PM 78.8 °F - 78.8 °F 100% 29.76 in 5.0 mi ESE 12.7 mph - N/A Rain Light Rain
11:05 PM 78.8 °F - 78.8 °F 100% 29.75 in 7.0 mi ESE 12.7 mph - N/A Rain Light Rain
11:08 PM 78.8 °F - 78.8 °F 100% 29.75 in 10.0 mi ESE 12.7 mph - N/A Rain Light Rain
11:18 PM 80.6 °F 89.3 °F 80.6 °F 100% 29.75 in 10.0 mi East 12.7 mph - N/A   Mostly Cloudy
11:58 PM 81.0 °F 90.6 °F 81.0 °F 100% 29.77 in 10.0 mi East 11.5 mph - 0.00 in   Partly Cloudy